Location: Bishop�s Knoyle
(51.0728°N, 2.1714°W)
Time: 12:21:59
(UTC+00:00)

Cosmos 2180 Rocket - Pass Details

Date: 18 September 2020
Orbit: 954 x 1004 km, 82.9° (Epoch: 23 October)

Event Time Altitude Azimuth Distance (km) Brightness Sun altitude
Exits shadow 21:50:39 80° 266° (W) 1,004 4.4 -30.5°
Maximum altitude 21:50:45 81° 281° (W) 1,003 4.5 -30.5°
Drops below altitude 10° 21:57:08 10° 8° (N) 2,770 7.3 -31.1°
Sets 21:59:41 0° 10° (N) 3,729 8.1 -31.4°
